User: anonymous   Login
Location: Unspecified
(0.0000°N, 0.0000°E)
Time: 01:02:52
(UTC+00:00)
Language:

STARLINK-4061 - Orbit

View from above orbital plane
View from above orbital plane
View from above satellite
View from above satellite

Ground track
Ground track

The orbit is defined by the following mean orbital elements,

1 53247U          26145.49062352 +.00000000 +00000-0 -45659-4 0 00007
2 53247  53.2133 214.5279 0001480  88.4641 271.6521 15.08852590    01
Epoch (UTC): 25 May 2026 11:46:29
Eccentricity: 0.0001480
inclination: 53.2133°
perigee height: 539 km
apogee height: 541 km
right ascension of ascending node: 214.5279°
argument of perigee: 88.4641°
revolutions per day: 15.08852590
mean anomaly at epoch: 271.6521°

The dashed part of the orbit path shows where the satellite is in the earth's shadow,  

DLR